DEAMA EDXW-EDDH

Flight info

Callsign DEAMA
Flight time N/A
Altitude 1000
Route DCT
Aircraft C172/L-SDE3FGHIRWY/L

Departure

Time N/A
Airport Westerland Sylt Airport (EDXW)

Arrival

Time 2026-04-23 20:52
Airport Hamburg Helmut Schmidt Airport (EDDH)
Time Latitude Longitude Altitude Speed Heading
2026-04-23 20:29 54.00995 9.48899 3176 ft 126 kts 111°
2026-04-23 20:29 54.00697 9.50279 3176 ft 126 kts 111°
2026-04-23 20:29 54.00395 9.51679 3147 ft 128 kts 111°
2026-04-23 20:30 54.00075 9.53150 2976 ft 136 kts 111°
2026-04-23 20:30 53.99376 9.56150 2629 ft 135 kts 115°
2026-04-23 20:30 53.99003 9.57608 2468 ft 132 kts 114°
2026-04-23 20:31 53.98644 9.59025 2374 ft 131 kts 114°
2026-04-23 20:31 53.98272 9.60493 2317 ft 131 kts 114°
2026-04-23 20:31 53.97921 9.61882 2209 ft 134 kts 114°
2026-04-23 20:31 53.97557 9.63314 2151 ft 132 kts 114°
2026-04-23 20:32 53.97195 9.64741 2075 ft 131 kts 114°
2026-04-23 20:32 53.96837 9.66153 2028 ft 130 kts 114°
2026-04-23 20:32 53.96476 9.67560 1976 ft 129 kts 116°
2026-04-23 20:32 53.96012 9.68853 1926 ft 129 kts 124°
2026-04-23 20:33 53.95555 9.70159 1873 ft 129 kts 119°
2026-04-23 20:33 53.95131 9.71499 1823 ft 129 kts 119°
2026-04-23 20:33 53.94707 9.72841 1775 ft 129 kts 119°
2026-04-23 20:33 53.94281 9.74188 1724 ft 130 kts 119°
2026-04-23 20:34 53.93853 9.75540 1676 ft 130 kts 119°
2026-04-23 20:34 53.93522 9.76967 1618 ft 131 kts 107°
2026-04-23 20:34 53.93072 9.78298 1573 ft 130 kts 124°
2026-04-23 20:34 53.92577 9.79587 1523 ft 130 kts 124°
2026-04-23 20:35 53.92080 9.80872 1472 ft 130 kts 124°
2026-04-23 20:35 53.91582 9.82160 1424 ft 131 kts 124°
2026-04-23 20:35 53.91086 9.83446 1373 ft 131 kts 124°
2026-04-23 20:35 53.90587 9.84734 1323 ft 130 kts 124°
2026-04-23 20:36 53.90091 9.86019 1272 ft 130 kts 124°
2026-04-23 20:36 53.89588 9.87320 1222 ft 130 kts 124°
2026-04-23 20:36 53.89114 9.88552 1358 ft 119 kts 124°
2026-04-23 20:36 53.88677 9.89693 1523 ft 112 kts 124°
2026-04-23 20:37 53.88257 9.90787 1691 ft 109 kts 124°
2026-04-23 20:37 53.87847 9.91858 1862 ft 107 kts 124°
2026-04-23 20:37 53.87441 9.92919 1933 ft 115 kts 124°
2026-04-23 20:37 53.86990 9.94090 1936 ft 121 kts 124°
2026-04-23 20:38 53.86523 9.95302 1934 ft 124 kts 124°
2026-04-23 20:38 53.86049 9.96530 1934 ft 125 kts 124°
2026-04-23 20:38 53.85575 9.97762 1934 ft 125 kts 124°
2026-04-23 20:38 53.85098 9.98997 1934 ft 125 kts 124°
2026-04-23 20:39 53.84623 10.00229 1934 ft 125 kts 124°
2026-04-23 20:39 53.84145 10.01464 1933 ft 125 kts 124°
2026-04-23 20:39 53.83669 10.02698 1932 ft 125 kts 124°
2026-04-23 20:39 53.83192 10.03936 1931 ft 125 kts 124°
2026-04-23 20:40 53.82713 10.05181 1931 ft 125 kts 124°
2026-04-23 20:40 53.82241 10.06401 1932 ft 125 kts 124°
2026-04-23 20:40 53.81766 10.07632 1930 ft 125 kts 124°
2026-04-23 20:40 53.81293 10.08859 1930 ft 125 kts 124°
2026-04-23 20:41 53.80812 10.10104 1930 ft 125 kts 124°
2026-04-23 20:41 53.80457 10.11428 1912 ft 126 kts 91°
2026-04-23 20:41 53.80708 10.12831 1922 ft 125 kts 64°
2026-04-23 20:41 53.81362 10.13734 1919 ft 124 kts 22°
2026-04-23 20:42 53.82153 10.14321 1922 ft 124 kts 23°
2026-04-23 20:42 53.82984 10.14445 1935 ft 121 kts 342°
2026-04-23 20:42 53.83628 10.13609 1942 ft 121 kts 294°
2026-04-23 20:42 53.83682 10.12216 1938 ft 121 kts 255°
2026-04-23 20:43 53.83325 10.10946 1950 ft 121 kts 245°
2026-04-23 20:43 53.82945 10.09662 1950 ft 121 kts 244°
2026-04-23 20:43 53.82564 10.08384 1957 ft 121 kts 244°
2026-04-23 20:43 53.82175 10.07074 1867 ft 126 kts 244°
2026-04-23 20:44 53.81783 10.05753 1819 ft 126 kts 244°
2026-04-23 20:44 53.81521 10.04872 1786 ft 126 kts 243°
2026-04-23 20:44 53.80957 10.03737 1729 ft 127 kts 224°
2026-04-23 20:44 53.80240 10.02874 1673 ft 128 kts 206°
2026-04-23 20:45 53.79417 10.02303 1623 ft 128 kts 200°
2026-04-23 20:45 53.78579 10.01843 1617 ft 125 kts 199°
2026-04-23 20:45 53.77753 10.01396 1615 ft 124 kts 199°
2026-04-23 20:45 53.76953 10.00969 1708 ft 118 kts 197°
2026-04-23 20:46 53.76133 10.00708 1705 ft 122 kts 186°
2026-04-23 20:46 53.75281 10.00766 1705 ft 123 kts 178°
2026-04-23 20:46 53.74414 10.00847 1706 ft 123 kts 178°
2026-04-23 20:46 53.73578 10.01035 1693 ft 125 kts 157°
2026-04-23 20:47 53.72855 10.01876 1689 ft 125 kts 134°
2026-04-23 20:47 53.72225 10.02822 1632 ft 116 kts 147°
2026-04-23 20:47 53.71631 10.03465 1603 ft 92 kts 151°
2026-04-23 20:47 53.71247 10.03769 1541 ft 81 kts 150°
2026-04-23 20:48 53.70753 10.04241 1648 ft 84 kts 153°
2026-04-23 20:48 53.70246 10.04750 1689 ft 87 kts 159°
2026-04-23 20:48 53.69711 10.05027 1651 ft 85 kts 178°
2026-04-23 20:48 53.69086 10.05083 1462 ft 92 kts 181°
2026-04-23 20:49 53.68450 10.05022 1311 ft 91 kts 188°
2026-04-23 20:49 53.67826 10.04876 1150 ft 90 kts 192°
2026-04-23 20:49 53.67220 10.04662 1003 ft 88 kts 195°
2026-04-23 20:49 53.66648 10.04396 867 ft 84 kts 201°
2026-04-23 20:50 53.66126 10.04016 771 ft 80 kts 208°
2026-04-23 20:50 53.65651 10.03570 715 ft 78 kts 216°
2026-04-23 20:50 53.65245 10.03050 567 ft 71 kts 223°
2026-04-23 20:50 53.64863 10.02474 505 ft 75 kts 227°
2026-04-23 20:51 53.64489 10.01792 395 ft 82 kts 231°
2026-04-23 20:51 53.64150 10.01101 257 ft 71 kts 232°
2026-04-23 20:51 53.63872 10.00536 185 ft 59 kts 232°
2026-04-23 20:51 53.63611 10.00006 103 ft 59 kts 232°
2026-04-23 20:52 53.63347 9.99467 53 ft 60 kts 232°
2026-04-23 20:52 53.63106 9.98975 41 ft 47 kts 234°
2026-04-23 20:52 53.62934 9.98621 38 ft 32 kts 225°
2026-04-23 20:52 53.62779 9.98479 39 ft 22 kts 189°
2026-04-23 20:53 53.62713 9.98482 38 ft 7 kts 159°
2026-04-23 20:53 53.62707 9.98574 38 ft 9 kts 62°
2026-04-23 20:53 53.62722 9.98644 38 ft 5 kts 144°
2026-04-23 20:53 53.62673 9.98682 38 ft 8 kts 155°
2026-04-23 20:54 53.62640 9.98689 38 ft 4 kts 276°
2026-04-23 20:54 53.62635 9.98649 38 ft 5 kts 243°
2026-04-23 20:54 53.62630 9.98635 38 ft 0 kts 239°